SWR2320 LSGG-LFKJ

Flight info

Callsign SWR2320
Flight time 0h 52m
Altitude 31000
Route MEDAM DCT VEVAR/N0444F350 DCT BARSO DCT KOLON DCT OMARD M623 VAREK
Aircraft A320/M-SDE3FGHIRWY/LB1

Departure

Time 2026-04-23 21:08
Airport Geneva International Airport (LSGG)

Arrival

Time 2026-04-23 22:01
Airport Ajaccio Napoléon Bonaparte airport (LFKJ)
Time Latitude Longitude Altitude Speed Heading
2026-04-23 20:14 46.23243 6.10692 1399 ft 0 kts 90°
2026-04-23 20:55 46.23243 6.10702 1393 ft 1 kts 90°
2026-04-23 20:55 46.23243 6.10737 1393 ft 3 kts 90°
2026-04-23 20:55 46.23246 6.10769 1393 ft 5 kts 65°
2026-04-23 20:55 46.23288 6.10789 1393 ft 6 kts 12°
2026-04-23 20:56 46.23326 6.10804 1396 ft 5 kts 16°
2026-04-23 20:56 46.23352 6.10796 1400 ft 4 kts 330°
2026-04-23 20:56 46.23381 6.10756 1397 ft 6 kts 315°
2026-04-23 20:56 46.23407 6.10719 1396 ft 5 kts 315°
2026-04-23 20:57 46.23425 6.10678 1397 ft 5 kts 276°
2026-04-23 20:57 46.23407 6.10645 1401 ft 4 kts 218°
2026-04-23 20:57 46.23392 6.10629 1395 ft 2 kts 217°
2026-04-23 20:57 46.23361 6.10586 1392 ft 11 kts 224°
2026-04-23 20:58 46.23296 6.10493 1396 ft 9 kts 226°
2026-04-23 20:58 46.23259 6.10437 1396 ft 7 kts 226°
2026-04-23 20:58 46.23230 6.10394 1396 ft 5 kts 226°
2026-04-23 20:58 46.23209 6.10362 1395 ft 4 kts 226°
2026-04-23 20:59 46.23194 6.10341 1396 ft 2 kts 225°
2026-04-23 20:59 46.23182 6.10323 1393 ft 5 kts 225°
2026-04-23 20:59 46.23149 6.10273 1393 ft 8 kts 229°
2026-04-23 20:59 46.23111 6.10208 1406 ft 8 kts 226°
2026-04-23 21:00 46.23076 6.10157 1397 ft 6 kts 225°
2026-04-23 21:00 46.23049 6.10117 1394 ft 5 kts 225°
2026-04-23 21:00 46.23029 6.10088 1394 ft 3 kts 226°
2026-04-23 21:00 46.23013 6.10065 1401 ft 3 kts 226°
2026-04-23 21:01 46.22994 6.10036 1403 ft 5 kts 226°
2026-04-23 21:01 46.22969 6.10000 1397 ft 6 kts 225°
2026-04-23 21:01 46.22929 6.09939 1399 ft 13 kts 226°
2026-04-23 21:01 46.22867 6.09851 1403 ft 12 kts 225°
2026-04-23 21:02 46.22831 6.09798 1395 ft 11 kts 225°
2026-04-23 21:02 46.22770 6.09707 1398 ft 9 kts 225°
2026-04-23 21:02 46.22743 6.09668 1397 ft 8 kts 225°
2026-04-23 21:02 46.22699 6.09604 1399 ft 6 kts 225°
2026-04-23 21:03 46.22672 6.09565 1399 ft 5 kts 225°
2026-04-23 21:03 46.22657 6.09543 1399 ft 4 kts 225°
2026-04-23 21:03 46.22634 6.09510 1401 ft 6 kts 225°
2026-04-23 21:03 46.22595 6.09452 1397 ft 9 kts 227°
2026-04-23 21:04 46.22560 6.09369 1400 ft 10 kts 249°
2026-04-23 21:04 46.22551 6.09305 1404 ft 1 kts 265°
2026-04-23 21:04 46.22551 6.09304 1405 ft 0 kts 265°
2026-04-23 21:06 46.22550 6.09274 1407 ft 7 kts 267°
2026-04-23 21:07 46.22562 6.09186 1413 ft 9 kts 300°
2026-04-23 21:07 46.22588 6.09146 1415 ft 4 kts 318°
2026-04-23 21:07 46.22621 6.09159 1416 ft 7 kts 46°
2026-04-23 21:07 46.22676 6.09237 1417 ft 22 kts 45°
2026-04-23 21:08 46.22966 6.09662 1413 ft 95 kts 45°
2026-04-23 21:08 46.23579 6.10561 1386 ft 154 kts 45°
2026-04-23 21:08 46.24356 6.11725 1921 ft 157 kts 46°
2026-04-23 21:08 46.25114 6.12876 2611 ft 160 kts 45°
2026-04-23 21:09 46.25930 6.14078 3066 ft 178 kts 45°
2026-04-23 21:09 46.26854 6.15429 3394 ft 200 kts 46°
2026-04-23 21:09 46.27893 6.16949 3727 ft 225 kts 46°
2026-04-23 21:09 46.29055 6.18647 4194 ft 248 kts 45°
2026-04-23 21:10 46.30297 6.20466 4975 ft 258 kts 46°
2026-04-23 21:10 46.31544 6.22365 5808 ft 264 kts 53°
2026-04-23 21:10 46.32341 6.24770 6632 ft 271 kts 78°
2026-04-23 21:10 46.32319 6.27498 7421 ft 276 kts 105°
2026-04-23 21:11 46.31426 6.29957 8285 ft 281 kts 131°
2026-04-23 21:11 46.29829 6.31603 9157 ft 287 kts 154°
2026-04-23 21:11 46.27985 6.32751 10046 ft 290 kts 155°
2026-04-23 21:11 46.26090 6.33901 10626 ft 305 kts 155°
2026-04-23 21:12 46.24088 6.35115 10899 ft 328 kts 155°
2026-04-23 21:12 46.21929 6.36425 11337 ft 342 kts 155°
2026-04-23 21:12 46.19713 6.37774 12039 ft 348 kts 155°
2026-04-23 21:12 46.17465 6.39145 12773 ft 353 kts 155°
2026-04-23 21:13 46.15185 6.40541 13492 ft 358 kts 155°
2026-04-23 21:13 46.12873 6.41960 14201 ft 363 kts 155°
2026-04-23 21:13 46.10534 6.43396 14861 ft 367 kts 155°
2026-04-23 21:13 46.08174 6.44840 15550 ft 369 kts 155°
2026-04-23 21:14 46.05801 6.46289 16220 ft 372 kts 155°
2026-04-23 21:14 46.03410 6.47748 16906 ft 375 kts 155°
2026-04-23 21:14 46.01000 6.49218 17570 ft 378 kts 155°
2026-04-23 21:14 45.98570 6.50701 18242 ft 381 kts 155°
2026-04-23 21:15 45.96119 6.52193 18837 ft 384 kts 155°
2026-04-23 21:15 45.93648 6.53696 19359 ft 387 kts 155°
2026-04-23 21:15 45.91157 6.55209 19940 ft 390 kts 155°
2026-04-23 21:15 45.88651 6.56728 20532 ft 393 kts 155°
2026-04-23 21:16 45.86157 6.58240 21111 ft 395 kts 155°
2026-04-23 21:16 45.83609 6.59780 21691 ft 398 kts 155°
2026-04-23 21:16 45.81048 6.61330 22241 ft 401 kts 155°
2026-04-23 21:16 45.78466 6.62891 22810 ft 404 kts 155°
2026-04-23 21:17 45.75867 6.64460 23352 ft 407 kts 155°
2026-04-23 21:17 45.73251 6.66035 23872 ft 409 kts 155°
2026-04-23 21:17 45.70617 6.67619 24309 ft 411 kts 155°
2026-04-23 21:17 45.67964 6.69216 24676 ft 416 kts 155°
2026-04-23 21:18 45.65290 6.70824 25083 ft 419 kts 155°
2026-04-23 21:18 45.62598 6.72444 25499 ft 420 kts 154°
2026-04-23 21:18 45.59897 6.74069 25898 ft 422 kts 154°
2026-04-23 21:18 45.57184 6.75696 26306 ft 424 kts 155°
2026-04-23 21:19 45.54453 6.77333 26675 ft 426 kts 155°
2026-04-23 21:19 45.51715 6.78973 27038 ft 428 kts 155°
2026-04-23 21:19 45.48968 6.80616 27422 ft 429 kts 155°
2026-04-23 21:19 45.46207 6.82260 27809 ft 431 kts 155°
2026-04-23 21:20 45.43433 6.83910 28185 ft 433 kts 155°
2026-04-23 21:20 45.40681 6.85544 28534 ft 435 kts 155°
2026-04-23 21:20 45.37879 6.87206 28884 ft 437 kts 155°
2026-04-23 21:20 45.35074 6.88871 29231 ft 438 kts 155°
2026-04-23 21:21 45.32253 6.90547 29562 ft 440 kts 155°
2026-04-23 21:21 45.29421 6.92229 29888 ft 442 kts 155°
2026-04-23 21:21 45.26506 6.93681 30182 ft 446 kts 163°
2026-04-23 21:21 45.23438 6.94490 30437 ft 450 kts 171°
2026-04-23 21:22 45.20316 6.94969 30663 ft 453 kts 171°
2026-04-23 21:22 45.17165 6.95451 30859 ft 456 kts 171°
2026-04-23 21:22 45.14006 6.95937 31101 ft 457 kts 171°
2026-04-23 21:22 45.10851 6.96428 31208 ft 453 kts 171°
2026-04-23 21:23 45.04697 6.97398 31226 ft 440 kts 171°
2026-04-23 21:23 44.98665 6.98345 31180 ft 439 kts 171°
2026-04-23 21:24 44.92592 6.99298 31184 ft 439 kts 171°
2026-04-23 21:24 44.86516 7.00247 31181 ft 439 kts 171°
2026-04-23 21:25 44.80429 7.01043 31172 ft 440 kts 178°
2026-04-23 21:25 44.74312 7.00185 31175 ft 442 kts 186°
2026-04-23 21:26 44.68215 6.99030 31173 ft 442 kts 186°
2026-04-23 21:26 44.62120 6.97885 31170 ft 442 kts 185°
2026-04-23 21:27 44.56024 6.96749 31167 ft 442 kts 185°
2026-04-23 21:27 44.49967 6.95627 31168 ft 442 kts 185°
2026-04-23 21:28 44.43867 6.94492 31167 ft 442 kts 185°
2026-04-23 21:28 44.37774 6.93364 31171 ft 442 kts 186°
2026-04-23 21:29 44.31673 6.92230 31176 ft 442 kts 186°
2026-04-23 21:29 44.25578 6.91104 31175 ft 442 kts 186°
2026-04-23 21:30 44.19480 6.89987 31174 ft 442 kts 186°
2026-04-23 21:30 44.13365 6.89259 31171 ft 440 kts 175°
2026-04-23 21:31 44.07274 6.90115 31174 ft 439 kts 172°
2026-04-23 21:31 44.01195 6.91023 31173 ft 439 kts 172°
2026-04-23 21:32 43.95101 6.91918 31174 ft 440 kts 173°
2026-04-23 21:32 43.89022 6.92827 31170 ft 440 kts 173°
2026-04-23 21:33 43.82939 6.93739 31166 ft 440 kts 173°
2026-04-23 21:33 43.76897 6.94649 31161 ft 440 kts 171°
2026-04-23 21:34 43.71080 6.97072 31157 ft 437 kts 152°
2026-04-23 21:34 43.66063 7.01750 31152 ft 436 kts 141°
2026-04-23 21:35 43.61234 7.06812 31151 ft 436 kts 142°
2026-04-23 21:35 43.56380 7.11848 31172 ft 437 kts 142°
2026-04-23 21:36 43.49084 7.19398 31168 ft 437 kts 142°
2026-04-23 21:37 43.44217 7.24432 31155 ft 438 kts 142°
2026-04-23 21:37 43.39345 7.29472 31166 ft 438 kts 142°
2026-04-23 21:38 43.34464 7.34516 31167 ft 439 kts 142°
2026-04-23 21:38 43.29579 7.39551 31168 ft 439 kts 142°
2026-04-23 21:39 43.24681 7.44582 31171 ft 440 kts 142°
2026-04-23 21:39 43.22223 7.47099 30954 ft 441 kts 142°
2026-04-23 21:39 43.19767 7.49612 30709 ft 441 kts 142°
2026-04-23 21:39 43.17338 7.52092 30476 ft 441 kts 142°
2026-04-23 21:40 43.14880 7.54601 30231 ft 441 kts 142°
2026-04-23 21:40 43.12421 7.57104 29950 ft 440 kts 144°
2026-04-23 21:40 43.09813 7.59261 29673 ft 438 kts 153°
2026-04-23 21:40 43.06994 7.60854 29386 ft 439 kts 159°
2026-04-23 21:41 43.04121 7.62274 29116 ft 439 kts 159°
2026-04-23 21:41 43.01256 7.63694 28849 ft 437 kts 159°
2026-04-23 21:41 42.98401 7.65111 28573 ft 436 kts 159°
2026-04-23 21:41 42.95551 7.66525 28298 ft 434 kts 159°
2026-04-23 21:42 42.92734 7.67922 27785 ft 429 kts 159°
2026-04-23 21:42 42.89938 7.69307 27200 ft 425 kts 159°
2026-04-23 21:42 42.87165 7.70681 26615 ft 422 kts 159°
2026-04-23 21:42 42.84416 7.72042 26050 ft 419 kts 159°
2026-04-23 21:43 42.81685 7.73390 25490 ft 416 kts 159°
2026-04-23 21:43 42.78974 7.74727 24949 ft 413 kts 159°
2026-04-23 21:43 42.76280 7.76057 24409 ft 411 kts 159°
2026-04-23 21:43 42.73601 7.77373 23897 ft 408 kts 159°
2026-04-23 21:44 42.70968 7.78663 23339 ft 406 kts 159°
2026-04-23 21:44 42.68331 7.79955 22860 ft 401 kts 159°
2026-04-23 21:44 42.65716 7.81238 22374 ft 397 kts 159°
2026-04-23 21:44 42.63133 7.82507 21903 ft 393 kts 159°
2026-04-23 21:45 42.60568 7.83767 21426 ft 390 kts 159°
2026-04-23 21:45 42.58028 7.85013 20953 ft 387 kts 159°
2026-04-23 21:45 42.55500 7.86250 20467 ft 385 kts 159°
2026-04-23 21:45 42.52988 7.87478 19977 ft 383 kts 159°
2026-04-23 21:46 42.50486 7.88700 19481 ft 381 kts 159°
2026-04-23 21:46 42.47999 7.89917 18983 ft 380 kts 159°
2026-04-23 21:46 42.45511 7.91134 18479 ft 379 kts 159°
2026-04-23 21:46 42.43031 7.92340 17931 ft 378 kts 159°
2026-04-23 21:47 42.40561 7.93540 17430 ft 376 kts 159°
2026-04-23 21:47 42.38105 7.94734 16928 ft 373 kts 159°
2026-04-23 21:47 42.35698 7.95904 16442 ft 371 kts 159°
2026-04-23 21:47 42.33272 7.97099 15969 ft 369 kts 156°
2026-04-23 21:48 42.31010 7.98686 15473 ft 365 kts 144°
2026-04-23 21:48 42.29048 8.00812 14997 ft 360 kts 135°
2026-04-23 21:48 42.27200 8.03087 14520 ft 359 kts 135°
2026-04-23 21:48 42.25355 8.05353 14038 ft 357 kts 135°
2026-04-23 21:49 42.23524 8.07600 13504 ft 355 kts 135°
2026-04-23 21:49 42.21701 8.09835 13030 ft 352 kts 135°
2026-04-23 21:49 42.19895 8.12044 12549 ft 349 kts 135°
2026-04-23 21:49 42.18104 8.14232 12050 ft 346 kts 135°
2026-04-23 21:50 42.16327 8.16400 11572 ft 343 kts 135°
2026-04-23 21:50 42.14567 8.18548 11081 ft 340 kts 135°
2026-04-23 21:50 42.12821 8.20679 10608 ft 337 kts 135°
2026-04-23 21:50 42.11117 8.22755 10469 ft 323 kts 135°
2026-04-23 21:51 42.09478 8.24748 10343 ft 310 kts 135°
2026-04-23 21:51 42.07907 8.26660 10225 ft 299 kts 135°
2026-04-23 21:51 42.06896 8.27890 10079 ft 294 kts 135°
2026-04-23 21:51 42.05386 8.29730 9646 ft 293 kts 135°
2026-04-23 21:52 42.03881 8.31562 9201 ft 293 kts 135°
2026-04-23 21:52 42.01892 8.33977 8730 ft 288 kts 135°
2026-04-23 21:52 42.00409 8.35774 8277 ft 284 kts 135°
2026-04-23 21:52 41.98950 8.37541 7589 ft 281 kts 135°
2026-04-23 21:53 41.97973 8.38724 7135 ft 279 kts 135°
2026-04-23 21:53 41.96546 8.40454 6540 ft 274 kts 135°
2026-04-23 21:53 41.95245 8.42276 5997 ft 268 kts 124°
2026-04-23 21:53 41.94341 8.44442 5516 ft 264 kts 109°
2026-04-23 21:54 41.93746 8.46688 5271 ft 244 kts 108°
2026-04-23 21:54 41.93198 8.48752 5009 ft 229 kts 108°
2026-04-23 21:54 41.92673 8.50723 4623 ft 222 kts 108°
2026-04-23 21:54 41.92155 8.52668 4460 ft 221 kts 108°
2026-04-23 21:55 41.91482 8.55196 4299 ft 209 kts 107°
2026-04-23 21:55 41.91163 8.56392 4242 ft 203 kts 107°
2026-04-23 21:55 41.90693 8.58156 4154 ft 200 kts 108°
2026-04-23 21:55 41.90248 8.59915 4028 ft 198 kts 102°
2026-04-23 21:56 41.90008 8.61732 3839 ft 196 kts 97°
2026-04-23 21:56 41.89811 8.63510 3720 ft 186 kts 97°
2026-04-23 21:56 41.89630 8.65179 3477 ft 176 kts 96°
2026-04-23 21:56 41.89457 8.66776 3152 ft 171 kts 97°
2026-04-23 21:57 41.89297 8.68342 2798 ft 169 kts 97°
2026-04-23 21:57 41.89383 8.69866 2661 ft 165 kts 72°
2026-04-23 21:57 41.89944 8.71203 2421 ft 165 kts 54°
2026-04-23 21:57 41.90661 8.72403 2149 ft 163 kts 50°
2026-04-23 21:58 41.91402 8.73546 2161 ft 163 kts 45°
2026-04-23 21:58 41.92310 8.74453 2126 ft 163 kts 29°
2026-04-23 21:58 41.93329 8.75135 1955 ft 163 kts 25°
2026-04-23 21:58 41.94357 8.75753 1803 ft 161 kts 23°
2026-04-23 21:59 41.95372 8.76386 1684 ft 161 kts 26°
2026-04-23 21:59 41.96366 8.77067 1564 ft 161 kts 28°
2026-04-23 21:59 41.97167 8.78046 1460 ft 161 kts 65°
2026-04-23 22:00 41.96625 8.80741 989 ft 159 kts 131°
2026-04-23 22:00 41.95769 8.81680 827 ft 159 kts 157°
2026-04-23 22:00 41.94708 8.81645 547 ft 158 kts 199°
2026-04-23 22:00 41.93706 8.81060 228 ft 155 kts 204°
2026-04-23 22:01 41.92745 8.80465 35 ft 147 kts 204°
2026-04-23 22:01 41.91987 8.79997 27 ft 80 kts 205°
2026-04-23 22:01 41.91656 8.79790 24 ft 45 kts 205°
2026-04-23 22:01 41.91395 8.79627 24 ft 31 kts 206°
2026-04-23 22:02 41.91254 8.79535 26 ft 16 kts 223°
2026-04-23 22:02 41.91272 8.79416 30 ft 14 kts 323°
2026-04-23 22:02 41.91367 8.79353 28 ft 16 kts 337°
2026-04-23 22:02 41.91485 8.79348 27 ft 19 kts 19°
2026-04-23 22:03 41.91612 8.79427 24 ft 22 kts 25°
2026-04-23 22:03 41.91751 8.79514 24 ft 19 kts 24°
2026-04-23 22:03 41.91857 8.79580 26 ft 17 kts 25°
2026-04-23 22:03 41.91919 8.79619 29 ft 4 kts 24°
2026-04-23 22:04 41.91933 8.79610 26 ft 4 kts 320°
2026-04-23 22:04 41.91943 8.79585 28 ft 2 kts 305°
2026-04-23 22:04 41.91954 8.79577 26 ft 1 kts 336°
2026-04-23 22:04 41.91960 8.79575 26 ft 1 kts 344°
2026-04-23 22:05 41.91967 8.79573 26 ft 0 kts 344°